DECAYED

COSMOS 2251 DEB, 35432 (Decayed)

Orbit data source: Space-Track

COSMOS 2251 DEB, 35432 was space debris in LEO originally from a launch on Wed, 16 Jun 1993 UTC launched from the Plesetsk Missile And Space Complex (PKMTR). The debris from Iridium 33, an American commercial communications satellite, has been tracked extensively since its accidental collision with the defunct Russian satellite Cosmos 2251 in 2009. This event, occurring at high speed in low Earth orbit (LEO), generated thousands of pieces of space debris, significantly increasing the risk of further collisions. The Iridium 33 debris cloud has impacted space traffic management and orbital debris mitigation strategies, making it a subject of ongoing study in space situational awareness.

Not visible in the next 10 days
Identifier
35432, 1993-036AKA
Orbit
Decayed
Country
Flag of CISCIS
Related business
Manufacturer
Unknown
Mission
Decayed spacecraft
Bus & Motor
Unknown
Mass
Unknown
Launch date (UTC)
1993-06-16 (33 years ago)
Launch vehicle
Unknown
Launch site
Plesetsk Missile And Space Complex (PKMTR)
Object type
Payload
Rocket body
Debris
Shape & HBR
Unknown shape, 0.1 m
Radar Cross Section
Medium (>0.1 m² and <1 m²)

Expand to show TLE details & history
Last TLE update: 3 months ago

TLE from 3 months ago
0 COSMOS 2251 DEB
1 35432U 93036AKA 26068.39031916  .01441733  00000-0  11295-1 0  9994
2 35432  74.0050 188.7318 0015577 331.7378  28.2997 15.68318455888353
Epoch: 2026-03-09T09:22Z
TLE epoch observation values (Epoch: 2026-03-09T09:22:03.575Z)
Latitude
-0.00006°
Longitude
-118.86706°
Altitude
357.234 km
Speed
7.7 km/s
True Right ascension
12h 34m 55s
True Declination
0° 00' 00"
Sunlit
Object was in full shadow at epoch
Visualization orbit readout
Latitude
Unknown
Longitude
Unknown
Altitude
Unknown
Speed
Unknown
Apparent Right ascension
Unknown
Apparent Declination
Unknown
Sunlit
N/A
Visualization observer readout
Local Sidereal Time
02:51:48
Azimuth
Unknown
Elevation
Unknown
Doppler factor
Unknown
Orbital elements
Apogee altitude
371.692 km
Perigee altitude
350.696 km
Semi-major axis
6,739.331 km
Eccentricity
0.00156
Inclination
74.005°
RAAN
188.7318°
Arg. of periapsis
331.7378°
True anomaly
28.38447°
Mean anomaly
28.2997°
Eccentric anomaly
28.34207°
Mean motion
3.923 °/min
Orbital period
91.77 mins
BSTAR
0.011295
Loading maneuver chart data...
Computing Atmospheric mass density...

Documentation

Showing up to 5 results
|